Wind_Speed
4 3 2 2 1 1 3 4 5 8 9 9 9 9 10 10 12 14 11 10 15 15 15 15 16 16 15 16 16 19 21 22 23 23 24 24 25 24 24 25 25 27 28 29 30 30 31 31 31
5 5 3 3 2 2 3 1 4 6 8 9 10 11 12 11 14 16 14 12 15 16 16 17 17 18 18 19 19 20 21 23 24 24 24 24 25 25 25 26 26 27 28 29 31 31 32 31 31
6 6 6 5 5 4 4 4 3 4 6 7 9 11 12 13 14 16 17 16 16 18 17 18 19 19 19 20 21 22 23 23 24 24 25 26 27 26 26 26 27 28 29 30 31 32 33 33 33
7 7 7 7 6 6 6 6 4 5 6 8 9 11 13 12 13 14 15 15 15 18 18 18 19 20 21 21 22 22 24 25 25 26 26 27 27 28 29 28 28 30 30 31 32 34 36 35 35
8 8 7 9 8 6 7 7 6 6 7 11 12 12 15 14 15 16 15 14 14 16 17 18 19 19 21 23 25 25 26 26 27 27 27 27 28 29 31 32 33 33 33 34 35 36 38 39 39
8 8 7 8 5 7 7 6 7 8 8 10 11 13 15 16 17 18 18 17 17 16 17 18 19 20 21 23 26 27 27 27 28 26 27 27 29 32 33 35 37 38 39 39 39 39 40 41 41
9 8 7 7 4 5 4 5 7 8 9 10 13 13 15 17 17 19 20 20 19 18 18 19 19 20 23 24 25 26 25 25 25 25 27 30 31 33 36 39 41 43 43 43 43 42 42 42 42
10 10 7 5 0 4 5 6 6 8 10 11 11 13 17 18 18 20 21 21 20 18 18 19 19 21 23 23 24 23 23 23 24 26 29 31 34 38 41 45 47 47 47 47 46 45 44 44 43
12 11 8 4 4 2 1 4 7 7 9 12 15 13 18 17 19 21 22 22 21 20 18 18 20 21 23 23 22 21 22 23 26 28 31 33 37 41 45 48 51 53 53 52 51 50 47 45 45
14 14 10 8 7 3 2 2 5 8 8 11 15 17 19 21 20 22 23 23 23 22 20 19 19 20 20 22 21 21 22 25 27 29 31 36 38 40 44 47 51 55 59 61 58 55 52 48 46
16 17 12 12 8 5 3 1 4 7 8 10 15 15 18 22 22 22 22 23 24 24 22 21 20 19 19 19 21 22 24 26 27 29 32 35 39 41 40 41 45 46 47 46 48 57 55 53 50
19 22 16 15 11 7 6 3 7 8 12 14 15 17 17 19 21 22 23 24 25 24 25 21 20 20 19 19 20 23 25 25 26 29 31 36 38 39 42 46 50 49 52 54 49 47 51 52 52
23 23 21 17 15 10 8 6 8 10 13 16 19 20 20 22 21 23 23 23 24 25 24 22 20 20 19 19 22 23 24 24 25 29 32 36 38 42 44 49 49 52 50 46 39 38 38 47 50
26 25 23 20 17 14 12 10 10 11 15 19 19 21 23 24 22 23 24 24 23 24 22 22 20 18 19 20 22 23 22 22 25 29 32 35 41 44 47 49 47 49 47 39 34 28 28 38 44
29 28 26 24 23 18 16 16 14 13 16 20 22 23 26 28 25 22 23 24 25 24 23 21 19 19 19 20 20 22 22 22 25 31 34 38 41 43 46 47 45 46 43 39 36 29 28 28 35
33 31 31 29 28 23 21 19 18 18 18 19 22 24 26 29 26 26 24 25 24 24 23 21 21 19 19 19 20 20 20 21 26 30 34 39 39 43 46 46 43 45 42 34 29 25 23 20 30
34 34 33 33 33 29 27 22 21 20 19 21 22 24 25 26 24 24 25 25 23 23 21 20 19 19 19 18 18 19 20 19 26 30 34 37 40 43 46 46 43 42 38 28 27 24 14 14 24
39 38 36 35 33 33 30 25 25 22 20 22 23 26 28 30 27 25 24 23 23 22 20 20 19 19 17 17 17 17 18 18 22 31 35 37 40 42 44 44 39 40 38 32 24 19 16 11 15
40 38 38 38 37 37 35 27 29 27 24 24 24 26 28 30 31 28 23 22 22 21 21 19 19 18 17 16 16 15 18 18 22 28 34 37 41 42 42 41 37 36 41 32 24 19 14 9 6
41 39 37 41 38 39 39 30 30 30 28 27 25 26 29 31 31 30 26 23 21 21 20 19 18 17 17 16 15 15 17 17 21 25 33 38 43 42 41 39 37 36 42 35 25 19 14 9 7
42 40 39 41 39 42 42 36 34 32 34 30 27 27 29 31 32 31 27 24 21 21 20 18 17 17 17 16 15 16 17 17 19 23 31 37 40 44 39 37 38 36 37 40 29 23 15 9 10
41 39 40 40 41 41 42 42 35 37 34 32 31 29 28 30 32 32 30 25 21 20 20 19 17 17 17 18 17 16 18 19 18 23 28 34 39 41 38 34 35 35 34 37 32 35 32 23 12
40 38 39 41 42 42 42 44 37 37 34 32 33 31 30 29 31 30 31 26 22 19 20 19 18 19 18 18 19 18 17 20 19 23 26 32 37 39 38 31 30 32 34 32 31 31 29 18 12
41 40 39 40 42 46 41 42 42 38 36 34 32 32 31 31 29 28 28 25 22 21 20 18 17 18 17 17 19 19 17 20 21 23 25 30 35 39 38 29 25 24 28 30 26 25 23 21 19
42 40 40 42 43 44 41 42 41 39 37 36 33 33 32 31 28 27 26 25 23 21 19 18 17 18 18 18 19 20 19 20 22 24 26 28 33 37 36 29 22 20 21 23 27 20 16 18 16
42 42 42 43 44 43 43 44 41 38 39 37 35 34 33 31 28 26 25 25 24 21 19 17 16 18 17 17 18 19 19 19 20 24 26 26 31 31 31 28 20 17 18 18 17 20 19 12 13
47 46 42 44 46 45 45 44 42 40 40 38 37 34 31 27 24 23 25 26 25 21 19 16 17 18 18 17 17 19 19 20 19 20 24 24 25 26 28 25 19 16 15 14 12 13 16 13 9
51 48 48 48 48 47 47 46 44 41 39 37 36 30 27 25 24 24 26 26 26 24 21 18 18 17 19 19 18 18 18 18 19 18 21 22 22 22 26 23 19 14 13 13 10 7 11 8 5
51 52 51 49 49 49 49 48 43 42 39 36 33 32 28 26 25 26 28 28 28 26 23 20 20 19 21 22 21 20 18 17 18 16 18 20 19 18 24 21 17 14 10 11 10 6 4 5 5
51 50 49 47 47 46 46 47 47 46 42 40 35 34 32 31 30 30 29 28 29 28 26 22 22 23 23 23 23 21 19 17 17 16 14 17 17 16 20 20 16 10 9 10 10 5 1 1 4
Wind_Direction
201 204 174 162 162 3 15 22 34 32 14 355 343 333 326 325 304 304 305 300 294 297 295 300 301 302 303 302 298 296 297 295 293 292 291 290 289 289 289 291 289 286 282 282 280 278 277 276 275
208 233 227 234 252 312 325 353 30 36 22 2 350 346 338 328 315 305 312 306 295 296 299 298 299 300 302 302 299 297 295 293 291 292 292 292 293 293 295 295 293 287 282 279 279 278 276 273 271
222 227 242 255 266 282 297 312 8 19 0 352 349 351 348 344 329 318 318 315 308 300 304 301 300 297 297 302 306 304 299 298 298 297 298 298 299 300 298 296 292 289 284 280 277 275 273 271 268
243 240 245 257 261 278 282 297 320 327 327 325 337 342 334 347 339 339 332 321 310 302 306 304 300 299 300 304 304 304 305 306 305 304 302 303 301 300 300 299 294 289 286 282 277 273 272 268 264
245 252 257 258 267 266 279 280 295 306 314 315 324 329 323 334 333 337 340 330 309 303 306 307 306 304 303 302 303 304 305 306 305 307 308 307 304 305 302 299 296 292 287 281 275 271 267 265 264
240 245 253 261 264 283 269 303 309 313 315 310 317 324 317 326 329 333 338 337 326 317 311 309 313 309 304 302 303 305 306 308 312 312 309 307 308 303 302 300 297 294 289 284 278 271 266 264 263
230 235 236 254 273 270 308 337 335 327 329 334 329 329 320 325 326 330 336 337 329 325 319 314 313 307 305 306 307 307 309 313 312 310 311 310 306 303 302 299 295 292 288 282 277 271 266 261 259
223 228 224 240 341 294 346 341 349 345 349 348 336 339 327 328 332 333 335 338 334 327 319 315 312 307 308 309 310 313 314 313 313 314 312 308 308 307 304 300 296 292 287 281 275 270 264 260 257
224 230 221 211 221 252 336 339 348 346 358 352 358 356 343 341 335 335 335 339 336 331 324 317 312 314 312 313 316 317 316 317 317 314 315 317 313 309 307 303 299 295 290 282 275 268 262 257 255
220 227 218 218 230 230 283 350 332 347 6 0 2 353 348 350 342 337 337 337 337 332 326 318 316 317 317 317 319 319 321 321 318 322 321 318 316 316 314 308 303 298 293 288 280 270 263 257 253
217 226 210 229 223 236 251 318 330 354 7 354 14 5 348 342 340 337 336 335 334 331 324 322 324 323 320 321 323 324 325 324 325 325 321 320 329 329 325 326 323 315 309 301 294 269 260 254 249
225 231 222 233 238 243 266 306 341 8 1 8 4 11 360 349 342 339 337 335 333 332 326 326 326 324 323 325 325 326 326 328 327 323 329 334 335 332 329 329 329 323 315 304 295 284 254 248 243
233 235 237 235 243 246 260 297 323 343 348 352 356 357 359 353 344 337 335 334 332 329 327 324 323 323 326 327 326 330 327 331 327 331 337 337 334 331 331 329 323 327 320 309 305 287 264 246 239
236 237 240 246 248 254 266 283 301 320 332 336 343 347 348 354 345 340 333 334 331 329 325 323 322 324 325 327 331 328 331 331 333 341 338 333 333 332 332 327 325 331 328 318 305 288 278 251 238
235 237 245 247 254 258 266 275 285 301 316 326 331 340 344 353 346 338 334 332 330 328 325 324 321 323 323 328 332 330 333 332 344 344 334 334 336 336 333 330 331 339 331 321 311 286 277 255 235
237 238 240 249 254 257 262 265 275 291 299 310 321 328 337 345 345 336 336 331 329 327 325 323 321 321 324 334 331 331 334 342 350 344 339 340 339 340 338 335 334 342 336 334 338 323 299 245 226
241 241 245 247 252 253 256 259 267 279 292 301 309 317 327 335 340 336 334 331 329 325 325 322 323 322 331 331 331 330 333 344 357 356 351 348 346 344 341 339 341 346 344 332 339 354 334 266 227
245 245 245 249 251 254 255 258 270 273 285 294 303 313 321 326 335 339 336 329 328 327 326 325 325 325 328 329 329 329 329 342 358 358 356 355 353 347 346 344 348 356 353 344 339 347 356 323 215
244 247 248 248 248 252 254 254 267 275 285 290 298 306 314 320 329 336 334 327 325 329 325 323 323 326 325 331 327 324 326 338 351 349 353 0 0 353 348 350 355 358 5 359 347 346 0 354 191
248 248 249 251 249 252 253 251 259 273 279 288 297 302 309 316 324 329 331 326 323 325 321 321 325 326 325 328 322 318 323 332 346 342 348 356 5 360 352 353 6 3 10 7 355 360 13 39 147
247 248 249 250 251 251 254 254 258 267 275 283 290 296 305 312 319 323 326 318 317 319 314 316 322 324 325 327 318 315 319 321 333 336 344 352 1 3 354 356 13 13 18 17 27 26 35 46 93
247 246 248 250 251 254 255 256 257 261 270 279 285 292 302 309 314 316 319 312 311 311 310 311 314 315 324 325 315 311 319 319 327 335 342 348 355 5 357 357 11 18 20 20 33 55 50 51 106
244 245 248 249 251 253 255 258 256 262 268 273 279 288 298 304 309 308 312 305 304 305 306 307 310 310 317 320 316 309 317 321 321 327 336 345 350 2 359 357 8 19 21 23 32 43 47 44 129
244 245 248 250 252 254 255 260 261 265 267 271 280 287 293 300 300 303 301 295 296 299 299 304 308 308 314 316 315 309 315 318 327 326 331 341 344 353 359 355 2 19 22 26 31 41 50 60 60
244 245 248 250 252 257 259 260 264 267 270 273 278 284 291 295 293 297 289 286 290 292 293 300 305 307 310 313 314 310 311 319 329 333 331 339 341 346 357 355 0 13 19 23 31 39 40 56 70
246 245 248 252 254 256 258 261 265 267 271 276 280 283 287 287 291 286 278 281 286 285 290 297 301 304 305 311 313 311 312 316 325 334 336 338 340 345 356 354 357 1 18 19 23 43 48 66 84
243 245 249 251 254 256 258 261 265 268 272 277 280 283 284 285 283 276 273 277 282 280 284 287 294 297 298 304 310 312 313 313 322 331 338 345 346 347 354 357 358 3 15 19 27 28 37 60 81
241 243 244 248 253 257 260 262 265 269 274 275 276 276 278 278 272 267 268 274 276 274 276 279 285 287 292 299 301 305 312 312 317 328 335 343 341 347 352 359 1 359 11 23 23 13 29 47 77
242 244 246 248 252 256 260 263 267 268 269 272 276 277 273 263 264 260 263 270 270 268 268 271 275 277 283 290 297 297 304 309 310 321 330 345 342 346 348 358 355 359 5 14 21 13 1 45 66
240 241 243 243 248 254 259 263 266 266 268 273 274 269 265 261 259 253 257 259 261 264 264 265 270 275 278 286 290 289 293 301 305 313 325 332 344 341 349 354 2 3 8 356 353 3 10 70 144
Height
5838 5838 5839 5840 5842 5839 5838 5839 5837 5836 5836 5835 5835 5835 5835 5835 5833 5834 5833 5832 5829 5829 5828 5828 5827 5826 5824 5823 5823 5822 5821 5820 5819 5817 5815 5813 5812 5811 5809 5807 5806 5804 5802 5801 5800 5799 5799 5799 5798
5837 5838 5839 5839 5840 5839 5839 5838 5836 5835 5835 5835 5834 5834 5833 5833 5832 5830 5831 5832 5828 5827 5827 5825 5824 5823 5822 5821 5820 5819 5818 5816 5814 5812 5810 5809 5808 5806 5804 5802 5800 5799 5797 5796 5794 5794 5793 5793 5793
5836 5837 5838 5838 5838 5838 5838 5836 5835 5834 5834 5834 5834 5833 5832 5832 5830 5828 5828 5829 5828 5825 5825 5823 5822 5821 5819 5818 5817 5816 5814 5812 5810 5808 5806 5804 5803 5801 5799 5797 5795 5793 5792 5789 5788 5787 5786 5786 5786
5835 5836 5837 5836 5836 5836 5837 5836 5834 5834 5835 5834 5833 5833 5831 5831 5829 5828 5826 5826 5825 5822 5822 5820 5819 5818 5817 5816 5814 5811 5810 5808 5806 5804 5801 5800 5797 5795 5793 5791 5789 5787 5785 5783 5782 5780 5779 5779 5778
5833 5834 5834 5834 5835 5835 5834 5834 5834 5834 5834 5832 5833 5832 5829 5829 5827 5825 5824 5822 5820 5819 5819 5817 5816 5815 5814 5812 5810 5808 5806 5804 5801 5799 5797 5795 5792 5790 5787 5785 5782 5779 5778 5776 5774 5773 5771 5770 5770
5831 5832 5833 5833 5833 5834 5832 5832 5833 5833 5833 5832 5831 5830 5829 5827 5825 5823 5821 5820 5818 5816 5816 5814 5814 5812 5809 5807 5806 5804 5802 5800 5798 5795 5792 5789 5787 5784 5781 5778 5775 5772 5770 5768 5766 5764 5762 5761 5761
5829 5830 5831 5831 5833 5833 5831 5830 5831 5831 5831 5830 5829 5829 5827 5826 5825 5822 5821 5820 5817 5814 5813 5811 5810 5807 5806 5804 5801 5800 5797 5795 5792 5789 5787 5785 5781 5777 5773 5770 5766 5763 5760 5757 5755 5753 5752 5751 5752
5827 5828 5828 5829 5831 5830 5831 5829 5829 5829 5830 5829 5828 5827 5825 5823 5822 5821 5819 5817 5815 5813 5809 5807 5806 5803 5801 5799 5797 5795 5793 5790 5787 5785 5782 5778 5775 5770 5766 5761 5756 5752 5748 5745 5742 5741 5740 5740 5740
5825 5826 5826 5828 5829 5829 5829 5829 5828 5828 5828 5827 5825 5825 5823 5821 5819 5818 5816 5814 5811 5810 5807 5803 5801 5799 5797 5796 5794 5791 5789 5786 5782 5779 5776 5772 5768 5763 5758 5752 5746 5741 5735 5731 5728 5726 5726 5727 5728
5822 5823 5824 5825 5826 5827 5827 5828 5827 5827 5826 5826 5825 5822 5821 5819 5816 5814 5813 5811 5808 5805 5803 5800 5798 5797 5794 5791 5789 5786 5784 5781 5778 5774 5770 5766 5761 5755 5748 5741 5734 5727 5721 5715 5712 5711 5711 5713 5715
5819 5820 5823 5823 5824 5825 5825 5825 5825 5825 5824 5823 5822 5821 5818 5816 5814 5811 5809 5807 5805 5802 5799 5796 5795 5792 5790 5788 5786 5783 5780 5776 5774 5769 5764 5760 5754 5747 5739 5731 5723 5715 5708 5700 5692 5689 5691 5696 5699
5816 5816 5819 5820 5821 5822 5822 5823 5823 5822 5822 5820 5819 5819 5817 5815 5812 5809 5807 5804 5801 5799 5796 5794 5790 5788 5786 5784 5782 5779 5776 5772 5768 5764 5760 5753 5746 5739 5731 5721 5712 5703 5693 5683 5674 5668 5668 5674 5681
5812 5813 5815 5817 5818 5818 5819 5820 5819 5819 5819 5817 5815 5814 5814 5811 5808 5805 5803 5801 5799 5796 5792 5790 5787 5784 5782 5780 5777 5775 5772 5768 5764 5760 5754 5747 5739 5731 5721 5712 5702 5691 5679 5667 5658 5652 5651 5655 5664
5808 5810 5812 5814 5815 5815 5817 5817 5816 5816 5816 5815 5813 5810 5808 5807 5805 5803 5800 5798 5795 5792 5788 5786 5784 5780 5778 5776 5773 5771 5769 5764 5760 5755 5749 5742 5734 5724 5713 5703 5692 5679 5667 5655 5646 5640 5638 5640 5648
5803 5805 5807 5810 5811 5813 5813 5814 5813 5812 5812 5812 5810 5809 5807 5804 5801 5799 5797 5794 5791 5789 5786 5782 5780 5777 5774 5772 5770 5768 5765 5761 5757 5751 5745 5737 5728 5717 5706 5695 5684 5670 5657 5645 5636 5631 5627 5627 5636
5796 5800 5802 5804 5807 5808 5810 5808 5809 5809 5808 5807 5807 5806 5805 5802 5798 5795 5793 5791 5788 5785 5782 5779 5777 5774 5772 5769 5767 5765 5762 5758 5753 5747 5740 5732 5722 5712 5701 5689 5677 5663 5650 5639 5630 5621 5617 5618 5623
5791 5794 5795 5798 5801 5803 5806 5805 5804 5805 5804 5804 5803 5803 5803 5801 5797 5794 5791 5788 5785 5782 5779 5776 5773 5771 5769 5766 5763 5761 5758 5754 5749 5744 5737 5728 5718 5707 5697 5684 5673 5659 5646 5637 5629 5620 5614 5614 5615
5783 5785 5789 5792 5795 5797 5799 5802 5800 5799 5801 5800 5799 5798 5797 5796 5794 5791 5787 5785 5782 5779 5777 5773 5770 5768 5765 5762 5760 5757 5755 5751 5746 5741 5733 5724 5715 5704 5693 5682 5670 5657 5644 5635 5627 5620 5614 5610 5610
5774 5779 5782 5785 5788 5789 5792 5797 5794 5794 5794 5795 5795 5794 5793 5791 5789 5787 5784 5782 5778 5776 5773 5770 5767 5765 5762 5760 5757 5753 5751 5748 5743 5739 5731 5722 5712 5701 5692 5681 5668 5656 5643 5634 5627 5620 5613 5611 5611
5768 5772 5775 5776 5781 5783 5782 5790 5789 5789 5789 5789 5790 5788 5787 5786 5785 5782 5780 5778 5775 5773 5770 5767 5765 5762 5759 5757 5754 5750 5747 5745 5741 5736 5729 5720 5711 5700 5691 5681 5668 5656 5645 5635 5627 5621 5616 5612 5613
5760 5764 5768 5769 5773 5774 5778 5782 5783 5783 5782 5784 5785 5783 5782 5781 5779 5778 5776 5774 5772 5770 5767 5764 5762 5759 5756 5753 5750 5747 5744 5742 5738 5733 5727 5718 5709 5700 5691 5682 5669 5657 5647 5639 5631 5624 5619 5617 5618
5751 5756 5758 5761 5763 5766 5770 5773 5777 5775 5778 5779 5779 5778 5776 5775 5774 5773 5771 5769 5768 5767 5764 5761 5759 5755 5752 5750 5747 5744 5741 5738 5735 5730 5724 5718 5709 5700 5692 5683 5672 5661 5652 5644 5638 5631 5627 5625 5627
5743 5747 5750 5752 5754 5757 5761 5763 5769 5769 5772 5771 5772 5772 5771 5770 5769 5768 5766 5764 5764 5763 5760 5758 5756 5753 5749 5747 5744 5741 5737 5735 5732 5727 5722 5717 5709 5701 5692 5685 5676 5667 5658 5650 5646 5641 5638 5636 5636
5734 5738 5741 5743 5746 5747 5752 5754 5758 5761 5763 5764 5765 5765 5765 5764 5763 5762 5760 5759 5759 5758 5756 5754 5752 5749 5746 5743 5741 5738 5734 5732 5729 5726 5721 5716 5709 5702 5694 5686 5679 5671 5664 5658 5653 5649 5645 5643 5643
5725 5729 5732 5734 5735 5739 5744 5745 5749 5751 5753 5756 5758 5759 5758 5757 5756 5756 5754 5753 5753 5753 5751 5750 5748 5746 5743 5740 5738 5735 5731 5729 5726 5723 5719 5714 5708 5702 5694 5688 5681 5674 5669 5664 5660 5656 5654 5651 5650
5716 5719 5723 5723 5726 5731 5732 5734 5739 5743 5743 5746 5749 5750 5751 5750 5750 5749 5748 5748 5747 5747 5747 5746 5745 5743 5740 5737 5735 5732 5728 5726 5724 5721 5717 5712 5707 5701 5695 5688 5683 5677 5672 5667 5664 5662 5660 5657 5657
5705 5708 5715 5715 5716 5720 5723 5726 5730 5733 5735 5737 5739 5740 5741 5742 5743 5742 5742 5741 5742 5741 5742 5741 5741 5739 5736 5733 5731 5729 5726 5723 5721 5719 5715 5711 5706 5701 5696 5689 5684 5678 5674 5670 5667 5666 5666 5664 5662
5693 5700 5702 5704 5707 5710 5713 5715 5720 5724 5725 5728 5730 5732 5733 5734 5735 5735 5735 5735 5735 5735 5736 5736 5736 5734 5732 5730 5728 5725 5722 5720 5719 5717 5713 5710 5706 5701 5696 5691 5686 5680 5676 5673 5670 5668 5668 5668 5668
5684 5686 5691 5696 5697 5700 5703 5706 5712 5714 5716 5719 5721 5723 5724 5725 5726 5727 5728 5728 5728 5729 5730 5730 5731 5729 5727 5726 5724 5722 5719 5717 5715 5714 5712 5709 5705 5701 5697 5692 5687 5682 5678 5675 5673 5671 5670 5670 5670
5670 5675 5679 5682 5688 5692 5694 5697 5699 5702 5706 5709 5712 5713 5715 5716 5717 5718 5719 5720 5720 5722 5723 5725 5724 5724 5723 5721 5719 5718 5716 5713 5712 5711 5710 5708 5704 5700 5698 5694 5689 5684 5680 5676 5674 5672 5672 5672 5672